Location: Mentone
(34.5413°N, 85.5351°W)
Time: 08:33:08
(UTC-05:00)

Centaur AC-72 - Visible Passes

Search period start: 17 September 2014 00:00
Search period end: 27 September 2014 00:00
Orbit: 1097 x 35258 km, 19.1° (Epoch: 14 September)

Date Brightness Start Highest point End Pass type
(mag) Time Alt. Az. Time Alt. Az. Time Alt. Az.
17 Sep 9.2 01:30:24 10° W 02:37:33 15° W 04:22:35 10° W visible
17 Sep 7.0 21:44:52 10° WSW 23:48:18 52° WSW 07:16:46 10° SSW visible
18 Sep 7.4 18:44:31 10° SW 22:49:40 71° S 04:33:54 10° SSE visible
19 Sep 7.1 15:54:06 10° S 23:10:56 55° SE 01:36:09 10° ESE visible
20 Sep 8.7 17:47:36 10° E 20:35:02 20° E 22:03:23 10° E visible
21 Sep 9.2 01:09:35 10° W 02:21:00 16° W 04:17:19 10° W visible
21 Sep 7.0 21:28:24 10° WSW 23:31:30 53° WSW 07:00:47 10° SSW visible
22 Sep 7.4 18:28:29 10° SW 22:39:50 71° S 04:17:47 10° SSE visible
23 Sep 7.2 15:38:09 10° S 22:54:49 53° SE 01:19:38 10° ESE visible
24 Sep 8.8 17:45:17 10° E 20:19:02 18° E 21:43:35 10° E visible
25 Sep 9.2 00:49:25 10° W 02:04:25 17° W 04:11:07 10° W visible
25 Sep 7.0 21:11:57 10° WSW 23:14:38 54° WSW 06:44:49 10° SSW visible
26 Sep 8.2 18:12:27 10° SW 22:29:57 71° S 00:00:00 68° SSW visible
